WetterOnline ( http://www.wetteronline.de )

Wetter aktuell Bonn

Aktuelles Wetter: Roleber (162m)

6-stündlich | Neueste Meldungen
Ortszeit Temperatur Wetter
So, 24.03. 1:00 5.4° C wolkig
Sa, 23.03. 19:00 8.5° C bewölkt
Sa, 23.03. 13:00 8.5° C bedeckt
Sa, 23.03. 7:00 5.3° C Nebel
Sa, 23.03. 1:00 11.2° C wolkig
Fr, 22.03. 19:00 14.7° C wolkenlos
Fr, 22.03. 13:00 18.2° C leicht bewölkt
Fr, 22.03. 7:00 3.0° C leicht bewölkt
Ortszeit Temperatur Wetter
So, 24.03. 5:00 5.0° C bedeckt
So, 24.03. 4:50 5.0° C bedeckt
So, 24.03. 4:40 5.1° C bedeckt
So, 24.03. 4:30 5.4° C bedeckt
So, 24.03. 4:20 5.4° C bedeckt
So, 24.03. 4:10 5.4° C bedeckt
So, 24.03. 4:00 5.2° C bedeckt
So, 24.03. 3:30 5.3° C bedeckt
So, 24.03. 3:00 4.8° C Nebel
So, 24.03. 2:30 3.7° C leicht bewölkt
So, 24.03. 2:00 4.3° C Nebel
Ortszeit Relative Feuchte Sichtweite
So, 24.03. 1:00 96% 2.1 km
Sa, 23.03. 19:00 74% 4.5 km
Sa, 23.03. 13:00 76% 3.1 km
Sa, 23.03. 7:00 98% 0.2 km
Sa, 23.03. 1:00 52% 30 km
Fr, 22.03. 19:00 43% 50 km
Fr, 22.03. 13:00 38% 22 km
Fr, 22.03. 7:00 90% 18 km
Ortszeit Relative Feuchte Sichtweite
So, 24.03. 5:00 97% 1.6 km
So, 24.03. 4:50 97% -
So, 24.03. 4:40 95% -
So, 24.03. 4:30 99% 1.1 km
So, 24.03. 4:20 99% -
So, 24.03. 4:10 97% -
So, 24.03. 4:00 99% 1.1 km
So, 24.03. 3:30 99% 1.4 km
So, 24.03. 3:00 100% 0.8 km
So, 24.03. 2:30 99% 1.1 km
So, 24.03. 2:00 99% 0.9 km
Ortszeit Niederschlagsmenge Niederschlagsart
So, 24.03. 1:00 0.0 l/m2 in 6 Std. -
Sa, 23.03. 19:00 0.1 l/m2 in 12 Std. -
Sa, 23.03. 13:00 0.1 l/m2 in 6 Std. Sprühregen
Sa, 23.03. 7:00 0.0 l/m2 in 12 Std. -
Sa, 23.03. 1:00 0.0 l/m2 in 6 Std. -
Fr, 22.03. 19:00 0.0 l/m2 in 12 Std. -
Fr, 22.03. 13:00 0.0 l/m2 in 6 Std. -
Fr, 22.03. 7:00 0.0 l/m2 in 12 Std. -
Ortszeit Niederschlagsmenge Niederschlagsart
So, 24.03. 5:00 0.0 l/m2 in 1 Std. -
So, 24.03. 4:50 keine Meldung -
So, 24.03. 4:40 keine Meldung -
So, 24.03. 4:30 0.0 l/m2 in 1 Std. -
So, 24.03. 4:20 keine Meldung -
So, 24.03. 4:10 keine Meldung -
So, 24.03. 4:00 0.0 l/m2 in 1 Std. -
So, 24.03. 3:30 0.0 l/m2 in 1 Std. -
So, 24.03. 3:00 0.0 l/m2 in 1 Std. -
So, 24.03. 2:30 0.0 l/m2 in 1 Std. -
So, 24.03. 2:00 0.0 l/m2 in 1 Std. -
Ortszeit Stärke Spitze Richtung
km/h Bft. km/h Grad Sektor
So, 24.03. 1:00 2 1 9 240° SW
Sa, 23.03. 19:00 4 1 18 280° W
Sa, 23.03. 13:00 7 2 18 300° NW
Sa, 23.03. 7:00 7 2 22 310° NW
Sa, 23.03. 1:00 7 2 25 250° W
Fr, 22.03. 19:00 11 2 25 130° SO
Fr, 22.03. 13:00 15 3 24 110° O
Fr, 22.03. 7:00 7 2 13 100° O
Ortszeit Stärke Spitze Richtung
km/h Bft. km/h Grad Sektor
So, 24.03. 5:00 6 1 7 80° O
So, 24.03. 4:50 6 1 - 80° O
So, 24.03. 4:40 7 2 - 60° NO
So, 24.03. 4:30 4 1 4 50° NO
So, 24.03. 4:20 4 1 - 50° NO
So, 24.03. 4:10 4 1 - 30° NO
So, 24.03. 4:00 4 1 4 30° NO
So, 24.03. 3:30 2 1 4 360° N
So, 24.03. 3:00 4 1 4 120° SO
So, 24.03. 2:30 4 1 4 60° NO
So, 24.03. 2:00 0 0 4 - -
Ortszeit Untergrenze Bedeckung Gattung
total tief tief mittel hoch
So, 24.03. 1:00 990 m 5/8 5/8 - - -
Sa, 23.03. 19:00 1080 m 7/8 7/8 - - -
Sa, 23.03. 13:00 510 m 8/8 8/8 - - -
Sa, 23.03. 7:00 <30 m 8/8 0/8 - - -
Sa, 23.03. 1:00 10500 m 8/8 0/8 - - -
Fr, 22.03. 19:00 - 0/8 0/8 - - -
Fr, 22.03. 13:00 9000 m 8/8 0/8 - - -
Fr, 22.03. 7:00 10500 m 6/8 0/8 - - -
Ortszeit Bedeckungsgrad in Achtel und Wolkenuntergrenze
So, 24.03. 5:00 2(870m) 8(1080m)
So, 24.03. 4:50 2(870m) 8(1080m)
So, 24.03. 4:40 4(900m) 8(1080m)
So, 24.03. 4:30 7(930m) 8(1140m)
So, 24.03. 4:20 7(930m) 8(1140m)
So, 24.03. 4:10 7(870m) 8(1140m)
So, 24.03. 4:00 1(240m) 7(900m) 8(1140m)
So, 24.03. 3:30 8(1080m)
So, 24.03. 3:00 7(1050m)
So, 24.03. 2:30 2(1110m) 3(10500m)
So, 24.03. 2:00 2(10500m)
Ortszeit Luftdruck NN (hPa) Tendenz (hPa in 3 Std.)
So, 24.03. 1:00 1029 - 1,3
Sa, 23.03. 19:00 1030 - 0,2
Sa, 23.03. 13:00 1031 + 0,3
Sa, 23.03. 7:00 1030 + 1,6
Sa, 23.03. 1:00 1027 0,0
Fr, 22.03. 19:00 1027 - 0,7
Fr, 22.03. 13:00 1030 - 1,5
Fr, 22.03. 7:00 1032 - 0,2
Ortszeit Luftdruck NN (hPa) Tendenz (hPa in 3 Std.)
So, 24.03. 5:00 1028 - 0,8
So, 24.03. 4:50 1028 keine Meldung
So, 24.03. 4:40 1028 keine Meldung
So, 24.03. 4:30 1028 - 0,9
So, 24.03. 4:20 1028 keine Meldung
So, 24.03. 4:10 1028 keine Meldung
So, 24.03. 4:00 1028 - 0,9
So, 24.03. 3:30 1029 - 1,0
So, 24.03. 3:00 1029 - 1,0
So, 24.03. 2:30 1029 - 1,1
So, 24.03. 2:00 1029 - 1,0
Ortszeit Schneehöhe (cm)
So, 24.03. 1:00 0
Sa, 23.03. 19:00 0
Sa, 23.03. 13:00 0
Sa, 23.03. 7:00 0
Sa, 23.03. 1:00 0
Fr, 22.03. 19:00 0
Fr, 22.03. 13:00 0
Fr, 22.03. 7:00 0
Ortszeit Schneehöhe (cm)
So, 24.03. 5:00 0
So, 24.03. 4:50 0
So, 24.03. 4:40 0
So, 24.03. 4:30 0
So, 24.03. 4:20 0
So, 24.03. 4:10 0
So, 24.03. 4:00 0
So, 24.03. 3:30 0
So, 24.03. 3:00 0
So, 24.03. 2:30 0
So, 24.03. 2:00 0
Link zu dieser Seite / Seite empfehlen

Das Wetter in ...